Location: Brasstown Bald
(34.8693°N, 83.8103°W)
Time: 21:04:52
(UTC-04:00)

Amateur Radio Satellites - All Passes

Search period start: 23 July 2016 20:34
Search period end: 24 July 2016 20:34
Location: Brasstown Bald, 34.8693°N, 83.8103°W

Satellite Date Start Highest point End Downlink Frequencies (MHz)
Time Altitude Azimuth
DOVE 4 23 Jul 20:40:06 20:43:40 27° 264° (W) 20:47:23 437.250
Cubesat XI-IV 23 Jul 20:43:24 20:45:30 12° 269° (W) 20:47:36 437.490
CUTE 1.7 + AOD 2 23 Jul 20:48:07 20:52:23 73° 77° (ENE) 20:56:40 437.475
AAUSAT CUBESAT 2 23 Jul 20:51:56 20:55:30 28° 72° (ENE) 20:59:04 437.432
STRAND 1 23 Jul 20:57:12 21:02:21 89° 116° (ESE) 21:07:27 437.568
UWE-3 23 Jul 21:04:52 21:08:34 25° 70° (ENE) 21:12:20 435.000/436.395/437.385
PCSat 23 Jul 21:11:56 21:17:19 72° 297° (WNW) 21:22:45 145.827
ZACube-1 23 Jul 21:15:02 21:18:24 21° 69° (ENE) 21:21:49 437.345
FUNcube-1 23 Jul 21:16:28 21:19:46 21° 69° (ENE) 21:23:07 145.935
CUBEBUG 2 23 Jul 21:17:35 21:21:57 53° 74° (ENE) 21:26:28 437.445
PHONESAT 2.4 23 Jul 21:19:29 21:22:15 29° 353° (N) 21:25:01 2401.200-2431.200
CINEMA 3 23 Jul 21:20:28 21:24:31 38° 263° (W) 21:28:47 145.822/145.860
BEESAT 2 23 Jul 21:27:17 21:30:39 27° 306° (NW) 21:34:04 435.950
BEESAT 3 23 Jul 21:30:45 21:32:57 14° 310° (NW) 21:35:09 437.485
SEEDS 23 Jul 21:35:04 21:39:06 42° 261° (W) 21:43:08 437.485
Cosmos 2491 23 Jul 21:35:16 21:41:25 22° 82° (E) 21:47:35 435.465 / 435.565
AUBIESAT-1 23 Jul 21:43:06 21:45:31 17° 62° (ENE) 21:48:03 437.475
HO-68 23 Jul 21:48:45 21:55:11 35° 262° (W) 22:01:41 435.675
DELFI C3 23 Jul 21:49:06 21:52:02 20° 70° (ENE) 21:54:57 145.870
COMPASS 1 23 Jul 21:54:36 21:58:28 36° 262° (W) 22:02:20 437.405
Oscar 11 23 Jul 22:03:27 22:07:49 80° 76° (ENE) 22:12:11 145.826/435.025
YUBILEINY 23 Jul 22:12:02 22:20:53 70° 82° (E) 22:29:38 435.215
O/OREOS (USA 219) 23 Jul 22:20:42 22:25:09 73° 291° (WNW) 22:29:37 437.305
AAUSAT CUBESAT 2 23 Jul 22:27:59 22:30:57 19° 265° (W) 22:33:55 437.432
ISS 23 Jul 22:30:32 22:33:22 28° 131° (SE) 22:36:13 145.825
PRISM 23 Jul 22:35:14 22:39:13 52° 286° (WNW) 22:43:11 437.425
Cosmos 2504 23 Jul 22:35:52 22:42:55 31° 73° (ENE) 22:49:29 435.465 / 435.565
UWE-3 23 Jul 22:41:10 22:44:53 25° 265° (W) 22:48:43 435.000/436.395/437.385
M-CUBED/EXP-1 PRIME 23 Jul 22:46:34 22:50:01 54° 256° (WSW) 22:53:48 437.505
ZACube-1 23 Jul 22:50:31 22:54:27 30° 264° (W) 22:58:29 437.345
FUNcube-1 23 Jul 22:51:47 22:55:45 31° 263° (W) 22:59:49 145.935
AIST 2 23 Jul 22:53:36 22:57:41 74° 299° (WNW) 23:01:49 435.215
PHONESAT 2.4 23 Jul 22:56:24 22:59:13 32° 10° (N) 23:02:03 2401.200-2431.200
CUBEBUG 2 23 Jul 22:57:11 22:58:52 12° 269° (W) 23:00:36 437.445
PCSat 23 Jul 23:01:27 23:01:40 10° 315° (NW) 23:01:53 145.827
HUMSAT D 23 Jul 23:03:18 23:07:35 77° 78° (ENE) 23:11:55 437.325/437.525
ANTELSAT 23 Jul 23:08:32 23:12:20 24° 95° (E) 23:16:02 437.575/2403.000
AUBIESAT-1 23 Jul 23:16:37 23:19:44 27° 259° (W) 23:23:04 437.475
DELFI C3 23 Jul 23:23:25 23:26:42 24° 264° (W) 23:30:00 145.870
CUBEBUG 1 23 Jul 23:24:19 23:26:11 13° 66° (ENE) 23:28:03 437.445
Cosmos 2491 23 Jul 23:28:45 23:37:23 67° 279° (W) 23:46:05 435.465 / 435.565
TIGRISAT 23 Jul 23:50:44 23:55:24 72° 101° (ESE) 23:59:56 435.000
AISAT 23 Jul 23:54:58 23:58:39 27° 70° (ENE) 00:02:21 437.250
AO-85 23 Jul 23:56:00 23:59:10 19° 49° (NE) 00:02:10 145.980
UNISAT 6 24 Jul 00:05:48 00:10:27 72° 284° (WNW) 00:14:59 437.425
ISS 24 Jul 00:07:05 00:09:46 23° 326° (NW) 00:12:28 145.825
DX 1 24 Jul 00:08:37 00:12:13 27° 70° (ENE) 00:15:51 434.975-435.025
YUBILEINY 24 Jul 00:10:40 00:16:44 21° 279° (W) 00:22:47 435.215
ESTCUBE 1 24 Jul 00:12:48 00:17:18 76° 77° (ENE) 00:21:48 437.505/2401.250
50 SAT 24 Jul 00:14:34 00:18:03 42° 75° (ENE) 00:21:33 437.505
Cosmos 2504 24 Jul 00:28:48 00:36:26 45° 272° (W) 00:43:32 435.465 / 435.565
UKube-1 24 Jul 00:29:20 00:33:16 36° 72° (ENE) 00:37:13 .
NANOSAT C BR1 24 Jul 00:30:54 00:34:34 27° 97° (E) 00:38:12 145.865
PHONESAT 2.4 24 Jul 00:32:49 00:35:53 69° 206° (SSW) 00:38:55 2401.200-2431.200
DUCHIFAT 1 24 Jul 00:37:03 00:40:48 30° 97° (E) 00:44:33 145.980
ANTELSAT 24 Jul 00:45:03 00:48:57 27° 290° (WNW) 00:52:46 437.575/2403.000
VELOX 1 24 Jul 00:46:07 00:50:29 78° 257° (WSW) 00:54:53 145.980
QB50P1 24 Jul 00:50:36 00:54:47 51° 100° (E) 00:58:56 145.935-145.965
POPSAT HIP 1 24 Jul 00:56:37 01:00:53 60° 101° (E) 01:05:05 437.405
CUBEBUG 1 24 Jul 00:57:52 01:02:01 48° 260° (W) 01:06:11 437.445
BUGSAT 1 24 Jul 01:07:47 01:11:30 29° 97° (E) 01:15:13 437.445
AIST 1 24 Jul 01:08:23 01:11:32 19° 76° (ENE) 01:14:41
SPROUT 24 Jul 01:09:53 01:14:09 86° 77° (ENE) 01:18:27 437.525
QB50P2 24 Jul 01:16:32 01:20:49 71° 283° (WNW) 01:25:04 145.880/145.840
POLYITAN 1 24 Jul 01:19:11 01:23:28 69° 285° (WNW) 01:27:43 437.675
AISAT 24 Jul 01:31:41 01:35:04 22° 264° (W) 01:38:28 437.250
AO-85 24 Jul 01:35:54 01:39:43 33° 248° (WSW) 01:43:17 145.980
DX 1 24 Jul 01:45:01 01:48:20 22° 264° (W) 01:51:41 434.975-435.025
Oscar 19 24 Jul 01:49:55 01:52:34 14° 93° (E) 01:55:13 437.125/150
JAS-2 24 Jul 01:50:11 01:55:23 58° 101° (ESE) 02:01:01 435.910
UKube-1 24 Jul 02:06:47 02:09:24 16° 266° (W) 02:12:01 .
NANOSAT C BR1 24 Jul 02:06:54 02:10:06 21° 291° (WNW) 02:13:17 145.865
SWISSCUBE 24 Jul 02:08:05 02:11:21 18° 67° (ENE) 02:14:35 437.505
DUCHIFAT 1 24 Jul 02:13:15 02:16:16 19° 291° (WNW) 02:19:16 145.980
TISAT 1 24 Jul 02:19:27 02:23:35 64° 259° (WSW) 02:27:46 437.305
GONETS M04 24 Jul 02:21:00 02:26:29 18° 67° (ENE) 02:31:58
QB50P1 24 Jul 02:28:27 02:30:04 12° 294° (WNW) 02:31:40 145.935-145.965
BEESAT 24 Jul 02:29:01 02:33:02 27° 69° (ENE) 02:37:03 436.000
POPSAT HIP 1 24 Jul 02:35:26 02:36:06 10° 295° (WNW) 02:36:45 437.405
Gurwin Techsat 1B 24 Jul 02:38:47 02:42:33 19° 94° (E) 02:46:17 435.225
BUGSAT 1 24 Jul 02:43:35 02:46:39 20° 291° (WNW) 02:49:42 437.445
AIST 1 24 Jul 02:45:25 02:49:05 27° 270° (W) 02:52:46
ITUPSAT 1 24 Jul 02:48:59 02:53:31 43° 72° (ENE) 02:58:03 437.325
JUGNU 24 Jul 03:13:21 03:15:02 11° 165° (SSE) 03:16:42 437.505
ITAMSAT 1 24 Jul 03:16:18 03:18:36 13° 92° (E) 03:20:54 435.822/435.867
Oscar 19 24 Jul 03:27:07 03:32:11 57° 287° (WNW) 03:37:14 437.125/150
JAS-2 24 Jul 03:37:11 03:40:05 15° 295° (WNW) 03:43:04 435.910
KKS-1 24 Jul 03:37:21 03:39:48 15° 66° (ENE) 03:42:16 437.445
Cosmos 2499 24 Jul 03:39:12 03:46:29 39° 76° (ENE) 03:53:13 435.465 / 435.565
MOZHAYETS 4 24 Jul 03:43:52 03:47:05 19° 68° (ENE) 03:50:17
SWISSCUBE 24 Jul 03:44:17 03:48:47 40° 261° (W) 03:53:18 437.505
BEESAT 24 Jul 04:06:43 04:10:43 26° 264° (W) 04:14:43 436.000
CUSAT 1 24 Jul 04:09:12 04:12:41 20° 96° (E) 04:15:37 437.405
AO-7 24 Jul 04:11:19 04:17:55 25° 96° (E) 04:24:27 29.400- 29.500
BEESAT 3 24 Jul 04:13:48 04:14:43 11° 47° (NE) 04:15:38 437.485
GONETS M04 24 Jul 04:15:29 04:24:19 84° 265° (W) 04:33:09
Gurwin Techsat 1B 24 Jul 04:17:37 04:22:38 44° 289° (WNW) 04:27:38 435.225
STARS 24 Jul 04:24:59 04:28:30 24° 69° (ENE) 04:32:02 437.465
ITUPSAT 1 24 Jul 04:28:31 04:31:30 16° 266° (W) 04:34:29 437.325
ITAMSAT 1 24 Jul 04:53:18 04:58:26 61° 286° (WNW) 05:03:30 435.822/435.867
CUBESAT XI-V 24 Jul 04:54:51 04:56:35 12° 65° (ENE) 04:58:20 437.345
JUGNU 24 Jul 04:59:31 05:03:18 17° 175° (S) 05:07:04 437.505
ISS 24 Jul 05:01:42 05:03:03 12° 26° (NNE) 05:04:24 145.825
KKS-1 24 Jul 05:11:45 05:15:58 43° 261° (W) 05:20:13 437.445
MOZHAYETS 4 24 Jul 05:19:40 05:23:57 36° 262° (W) 05:28:14
SRMSAT 24 Jul 05:23:39 05:24:44 10° 165° (SSE) 05:25:49 437.500
Cosmos 2499 24 Jul 05:32:36 05:39:21 33° 274° (W) 05:45:42 435.465 / 435.565
DANDE 24 Jul 05:36:08 05:42:44 76° 97° (E) 05:47:39 436.750
BEESAT 2 24 Jul 05:47:35 05:51:33 58° 60° (ENE) 05:55:27 435.950
BEESAT 3 24 Jul 05:48:52 05:52:48 65° 243° (WSW) 05:56:42 437.485
CUSAT 1 24 Jul 05:50:38 05:54:33 24° 279° (W) 05:57:46 437.405
STARS 24 Jul 06:01:09 06:04:43 25° 263° (W) 06:08:21 437.465
AO-7 24 Jul 06:02:52 06:11:03 62° 292° (WNW) 06:19:11 29.400- 29.500
PCSat 24 Jul 06:03:16 06:08:27 44° 59° (ENE) 06:13:35 145.827
GONETS M04 24 Jul 06:16:06 06:19:41 13° 283° (WNW) 06:23:17
CUBESAT XI-V 24 Jul 06:28:52 06:33:26 58° 260° (W) 06:38:00 437.345
HORYU 2 24 Jul 06:30:00 06:34:30 76° 104° (ESE) 06:38:56 437.375
ISS 24 Jul 06:36:38 06:39:54 89° 55° (NE) 06:43:09 145.825
NOAA 15 24 Jul 06:38:45 06:42:20 18° 94° (E) 06:45:53 137.62
JUGNU 24 Jul 06:47:52 06:51:36 17° 185° (S) 06:55:18 437.505
LilacSat-2 24 Jul 06:51:32 06:53:28 13° 93° (E) 06:55:23 437.200
GOMX 1 24 Jul 06:53:29 06:56:29 16° 93° (E) 06:59:34 467.674
O/OREOS (USA 219) 24 Jul 06:57:32 06:58:35 11° 57° (ENE) 06:59:39 437.305
RS-15 24 Jul 07:06:36 07:16:38 39° 105° (ESE) 07:27:06 29.354- 29.394
BRITE-PL 24 Jul 07:09:25 07:14:05 50° 100° (E) 07:19:06 437.365/2234.400
SRMSAT 24 Jul 07:09:26 07:13:08 17° 174° (S) 07:16:51 437.500
AIST 2 24 Jul 07:18:24 07:21:54 25° 54° (NE) 07:25:23 435.215
Cubesat XI-IV 24 Jul 07:20:42 07:25:36 36° 98° (E) 07:30:27 437.490
DANDE 24 Jul 07:23:46 07:25:24 11° 285° (WNW) 07:26:55 436.750
CUTE-I 24 Jul 07:45:13 07:50:32 64° 101° (ESE) 07:55:48 437.470
PCSat 24 Jul 07:47:30 07:51:29 21° 254° (WSW) 07:55:26 145.827
NOAA 18 24 Jul 07:51:19 07:56:52 72° 103° (ESE) 08:02:22 137.9125
AO-7 24 Jul 07:59:53 08:02:07 11° 311° (NW) 08:04:21 29.400- 29.500
STRAND 1 24 Jul 08:09:31 08:14:41 90° 215° (SW) 08:19:52 437.568
NOAA 15 24 Jul 08:17:16 08:22:16 45° 288° (WNW) 08:27:15 137.62
LilacSat-2 24 Jul 08:24:20 08:27:50 33° 287° (WNW) 08:31:18 437.200
CANX-2 24 Jul 08:24:20 08:26:04 12° 92° (E) 08:27:47 2200.000
GOMX 1 24 Jul 08:29:49 08:34:42 53° 285° (WNW) 08:39:50 467.674
SO-50 24 Jul 08:32:53 08:36:00 17° 108° (ESE) 08:39:07 436.795
O/OREOS (USA 219) 24 Jul 08:33:56 08:38:26 67° 253° (WSW) 08:42:57 437.305
CUTE 1.7 + AOD 2 24 Jul 08:37:44 08:40:17 16° 94° (E) 08:42:49 437.475
JUGNU 24 Jul 08:38:31 08:39:50 11° 195° (SSW) 08:41:08 437.505
DOVE 4 24 Jul 08:40:27 08:45:35 88° 283° (WNW) 08:50:53 437.250
BRITE-PL 24 Jul 08:49:25 08:52:13 16° 292° (WNW) 08:55:08 437.365/2234.400
AIST 2 24 Jul 08:56:52 09:00:16 24° 249° (WSW) 09:03:39 435.215
SRMSAT 24 Jul 08:57:48 09:01:36 18° 184° (S) 09:05:23 437.500
Cubesat XI-IV 24 Jul 09:01:10 09:05:25 25° 293° (WNW) 09:09:40 437.490
CUBEBUG 2 24 Jul 09:13:13 09:16:01 16° 92° (E) 09:18:46 437.445
RS-15 24 Jul 09:17:20 09:28:30 57° 306° (NW) 09:40:21 29.354- 29.394
YUBILEINY 24 Jul 09:17:23 09:21:29 14° 78° (ENE) 09:25:36 435.215
CINEMA 3 24 Jul 09:17:41 09:22:42 66° 101° (E) 09:27:38 145.822/145.860
HO-68 24 Jul 09:19:12 09:26:15 55° 102° (ESE) 09:33:15 435.675
PRISM 24 Jul 09:20:57 09:24:59 67° 76° (ENE) 09:29:03 437.425
SEEDS 24 Jul 09:22:13 09:26:06 37° 98° (E) 09:29:57 437.485
CUTE-I 24 Jul 09:27:12 09:29:59 14° 297° (WNW) 09:32:44 437.470
NOAA 18 24 Jul 09:34:07 09:36:51 14° 298° (WNW) 09:39:33 137.9125
COMPASS 1 24 Jul 09:40:28 09:44:24 42° 99° (E) 09:48:18 437.405
Cosmos 2491 24 Jul 09:43:14 09:51:46 53° 79° (E) 10:00:15 435.465 / 435.565
Oscar 11 24 Jul 09:55:03 09:58:03 18° 94° (E) 10:01:02 145.826/435.025
CANX-2 24 Jul 09:58:06 10:02:06 43° 286° (WNW) 10:06:04 2200.000
ANTELSAT 24 Jul 10:04:55 10:07:38 16° 66° (ENE) 10:10:21 437.575/2403.000
SO-50 24 Jul 10:11:23 10:16:06 48° 303° (WNW) 10:20:48 436.795
AAUSAT CUBESAT 2 24 Jul 10:12:06 10:16:13 85° 101° (ESE) 10:20:19 437.432
CUTE 1.7 + AOD 2 24 Jul 10:12:23 10:16:11 34° 287° (WNW) 10:19:59 437.475
M-CUBED/EXP-1 PRIME 24 Jul 10:29:31 10:32:21 16° 98° (E) 10:35:09 437.505
UWE-3 24 Jul 10:33:16 10:37:56 85° 104° (ESE) 10:42:25 435.000/436.395/437.385
ZACube-1 24 Jul 10:41:41 10:46:11 67° 101° (E) 10:50:33 437.345
FUNcube-1 24 Jul 10:42:41 10:47:10 64° 100° (E) 10:51:30 145.935
TIGRISAT 24 Jul 10:45:46 10:50:02 41° 73° (ENE) 10:54:25 435.000
SRMSAT 24 Jul 10:48:08 10:50:00 11° 194° (SSW) 10:51:51 437.500
CUBEBUG 2 24 Jul 10:48:19 10:52:49 43° 287° (WNW) 10:57:11 437.445
HUMSAT D 24 Jul 10:51:33 10:54:03 15° 93° (E) 10:56:31 437.325/437.525
CINEMA 3 24 Jul 10:57:01 10:59:11 13° 295° (WNW) 11:01:23 145.822/145.860
AUBIESAT-1 24 Jul 10:57:42 11:01:36 26° 100° (E) 11:05:27 437.475
SEEDS 24 Jul 10:59:08 11:01:27 15° 292° (WNW) 11:03:45 437.485
UNISAT 6 24 Jul 11:00:42 11:05:13 65° 75° (ENE) 11:09:51 437.425
DELFI C3 24 Jul 11:03:30 11:07:20 49° 100° (E) 11:11:08 145.870
HO-68 24 Jul 11:07:50 11:13:29 26° 298° (WNW) 11:19:07 435.675
YUBILEINY 24 Jul 11:08:08 11:16:54 88° 95° (E) 11:25:46 435.215
Cosmos 2504 24 Jul 11:09:00 11:16:18 30° 84° (E) 11:23:40 435.465 / 435.565
COMPASS 1 24 Jul 11:17:40 11:19:32 13° 293° (WNW) 11:21:24 437.405
NANOSAT C BR1 24 Jul 11:21:10 11:23:20 14° 67° (ENE) 11:25:30 145.865
DUCHIFAT 1 24 Jul 11:26:51 11:29:15 15° 67° (ENE) 11:31:41 145.980
Oscar 11 24 Jul 11:30:24 11:34:11 31° 288° (WNW) 11:37:58 145.826/435.025
RS-15 24 Jul 11:36:53 11:44:32 19° 335° (NNW) 11:52:25 29.354- 29.394
ANTELSAT 24 Jul 11:39:31 11:43:54 45° 261° (W) 11:48:22 437.575/2403.000
QB50P1 24 Jul 11:40:09 11:43:34 24° 70° (ENE) 11:47:02 145.935-145.965
Cosmos 2491 24 Jul 11:40:58 11:48:01 29° 276° (W) 11:55:07 435.465 / 435.565
POPSAT HIP 1 24 Jul 11:46:03 11:49:40 28° 71° (ENE) 11:53:19 437.405
BUGSAT 1 24 Jul 11:55:54 11:57:50 13° 67° (ENE) 11:59:47 437.445
JAS-2 24 Jul 12:01:02 12:04:55 18° 66° (ENE) 12:08:34 435.910
M-CUBED/EXP-1 PRIME 24 Jul 12:02:29 12:06:59 48° 291° (WNW) 12:11:29 437.505
QB50P2 24 Jul 12:05:32 12:09:38 53° 74° (ENE) 12:13:48 145.880/145.840
POLYITAN 1 24 Jul 12:08:09 12:12:16 54° 75° (ENE) 12:16:28 437.675
ESTCUBE 1 24 Jul 12:09:28 12:12:48 20° 95° (E) 12:16:06 437.505/2401.250
ZACube-1 24 Jul 12:21:43 12:21:48 10° 296° (WNW) 12:21:53 437.345
FUNcube-1 24 Jul 12:21:59 12:22:47 10° 296° (WNW) 12:23:33 145.935
TIGRISAT 24 Jul 12:24:04 12:26:52 16° 267° (W) 12:29:43 435.000
HUMSAT D 24 Jul 12:25:57 12:29:46 34° 287° (WNW) 12:33:30 437.325/437.525
AUBIESAT-1 24 Jul 12:31:58 12:35:55 28° 294° (WNW) 12:39:52 437.475
VELOX 1 24 Jul 12:40:00 12:43:39 25° 96° (E) 12:47:19 145.980
DELFI C3 24 Jul 12:41:32 12:41:42 10° 294° (WNW) 12:41:52 145.870
CUBEBUG 1 24 Jul 12:49:36 12:53:42 38° 98° (E) 12:57:48 437.445
NANOSAT C BR1 24 Jul 12:54:40 12:58:39 42° 261° (W) 13:02:41 145.865
SPROUT 24 Jul 13:00:04 13:03:09 19° 95° (E) 13:06:12 437.525
Cosmos 2504 24 Jul 13:00:39 13:09:10 54° 281° (W) 13:17:50 435.465 / 435.565
DUCHIFAT 1 24 Jul 13:00:41 13:04:35 38° 262° (W) 13:08:33 145.980
Oscar 19 24 Jul 13:03:50 13:06:46 16° 65° (ENE) 13:09:42 437.125/150
YUBILEINY 24 Jul 13:09:45 13:14:49 16° 294° (WNW) 13:19:56 435.215
QB50P1 24 Jul 13:15:55 13:19:15 22° 264° (W) 13:22:37 145.935-145.965
50 SAT 24 Jul 13:19:45 13:23:22 90° 312° (NW) 13:26:57 437.505
POPSAT HIP 1 24 Jul 13:22:20 13:25:25 20° 265° (W) 13:28:32 437.405
AISAT 24 Jul 13:23:48 13:28:17 89° 112° (ESE) 13:32:44 437.250
BUGSAT 1 24 Jul 13:28:59 13:32:47 40° 261° (W) 13:36:41 437.445
DX 1 24 Jul 13:35:10 13:39:33 81° 103° (ESE) 13:43:56 434.975-435.025
AIST 1 24 Jul 13:35:36 13:37:33 13° 86° (E) 13:39:29
JAS-2 24 Jul 13:43:17 13:49:38 59° 258° (WSW) 13:55:17 435.910
QB50P2 24 Jul 13:45:14 13:45:43 10° 268° (W) 13:46:12 145.880/145.840
ESTCUBE 1 24 Jul 13:45:40 13:49:35 30° 289° (WNW) 13:53:30 437.505/2401.250
UKube-1 24 Jul 13:55:07 13:59:27 75° 283° (WNW) 14:03:45 .
Gurwin Techsat 1B 24 Jul 13:56:39 14:00:45 23° 67° (ENE) 14:04:51 435.225
RS-15 24 Jul 13:58:18 14:04:28 15° 13° (NNE) 14:10:40 29.354- 29.394
AO-85 24 Jul 14:06:49 14:10:18 18° 108° (ESE) 14:13:45 145.980
TISAT 1 24 Jul 14:07:06 14:10:36 24° 96° (E) 14:14:04 437.305
VELOX 1 24 Jul 14:16:24 14:20:00 25° 290° (WNW) 14:23:36 145.980
CUBEBUG 1 24 Jul 14:26:55 14:29:39 16° 292° (WNW) 14:32:23 437.445
ITAMSAT 1 24 Jul 14:30:57 14:33:59 16° 64° (ENE) 14:37:03 435.822/435.867
SPROUT 24 Jul 14:35:18 14:39:05 30° 288° (WNW) 14:42:51 437.525
Oscar 19 24 Jul 14:40:36 14:45:35 55° 259° (W) 14:50:37 437.125/150
ITUPSAT 1 24 Jul 14:54:19 14:56:53 14° 93° (E) 14:59:26 437.325
AO-7 24 Jul 15:07:02 15:13:45 28° 59° (ENE) 15:20:28 29.400- 29.500
AIST 1 24 Jul 15:10:46 15:14:43 38° 280° (W) 15:18:42
GONETS M04 24 Jul 15:18:29 15:24:40 22° 82° (E) 15:30:50
Gurwin Techsat 1B 24 Jul 15:35:30 15:40:25 38° 262° (W) 15:45:21 435.225
TISAT 1 24 Jul 15:42:45 15:46:06 23° 290° (WNW) 15:49:27 437.305
AO-85 24 Jul 15:45:06 15:50:24 56° 302° (WNW) 15:55:32 145.980
SWISSCUBE 24 Jul 15:47:26 15:52:11 66° 101° (ESE) 15:56:53 437.505
ITAMSAT 1 24 Jul 16:07:49 16:12:56 57° 259° (WSW) 16:18:06 435.822/435.867
BEESAT 24 Jul 16:09:11 16:13:58 80° 283° (WNW) 16:18:41 436.000
Cosmos 2499 24 Jul 16:10:01 16:17:56 38° 87° (E) 16:25:48 435.465 / 435.565
RS-15 24 Jul 16:10:56 16:22:12 38° 46° (NE) 16:33:17 29.354- 29.394
DANDE 24 Jul 16:19:37 16:21:35 19° 78° (ENE) 16:23:41 436.750
CUSAT 1 24 Jul 16:25:22 16:28:15 51° 262° (W) 16:31:49 437.405
ITUPSAT 1 24 Jul 16:30:21 16:34:56 48° 287° (WNW) 16:39:29 437.325
AO-7 24 Jul 16:57:41 17:05:55 61° 256° (WSW) 17:14:12 29.400- 29.500
KKS-1 24 Jul 17:05:46 17:10:04 44° 100° (E) 17:14:20 437.445
GONETS M04 24 Jul 17:12:01 17:20:37 66° 279° (W) 17:29:17
MOZHAYETS 4 24 Jul 17:17:35 17:22:08 67° 101° (E) 17:26:39
HORYU 2 24 Jul 17:24:32 17:28:47 45° 73° (ENE) 17:33:04 437.375
SWISSCUBE 24 Jul 17:27:52 17:29:21 11° 297° (WNW) 17:30:52 437.505
NOAA 18 24 Jul 17:38:06 17:39:53 12° 61° (ENE) 17:41:41 137.9125
STARS 24 Jul 17:52:47 17:57:14 75° 101° (ESE) 18:01:40 437.465
NOAA 15 24 Jul 17:55:39 17:59:35 22° 67° (ENE) 18:03:32 137.62
Cosmos 2499 24 Jul 18:02:34 18:10:50 43° 283° (WNW) 18:19:06 435.465 / 435.565
BRITE-PL 24 Jul 18:18:04 18:21:52 34° 73° (ENE) 18:25:38 437.365/2234.400
RS-15 24 Jul 18:23:17 18:35:27 66° 248° (WSW) 18:47:20 29.354- 29.394
CUBESAT XI-V 24 Jul 18:28:43 18:33:06 43° 99° (E) 18:37:29 437.345
PHONESAT 2.4 24 Jul 18:37:06 18:40:04 47° 152° (SSE) 18:43:03 2401.200-2431.200
Cubesat XI-IV 24 Jul 18:39:15 18:44:19 43° 71° (ENE) 18:49:23 437.490
KKS-1 24 Jul 18:43:42 18:46:13 15° 294° (WNW) 18:48:45 437.445
SO-50 24 Jul 18:46:02 18:50:35 60° 58° (ENE) 18:55:01 436.795
MOZHAYETS 4 24 Jul 18:57:56 18:58:41 10° 296° (WNW) 18:59:25
LilacSat-2 24 Jul 19:02:16 19:06:06 69° 77° (ENE) 19:09:58 437.200
HORYU 2 24 Jul 19:03:16 19:05:31 14° 267° (W) 19:07:48 437.375
CUTE-I 24 Jul 19:03:33 19:08:54 75° 75° (ENE) 19:14:17 437.470
NOAA 18 24 Jul 19:14:14 19:19:44 85° 256° (WSW) 19:25:19 137.9125
NOAA 15 24 Jul 19:34:11 19:39:04 39° 261° (W) 19:43:58 137.62
GOMX 1 24 Jul 19:35:13 19:39:19 66° 260° (W) 19:43:31 467.674
BEESAT 3 24 Jul 19:36:09 19:39:52 44° 115° (ESE) 19:43:38 437.485
BEESAT 2 24 Jul 19:36:59 19:40:05 22° 111° (ESE) 19:43:12 435.950
DOVE 4 24 Jul 19:43:01 19:47:08 60° 75° (ENE) 19:51:27 437.250
HO-68 24 Jul 19:44:51 19:50:49 30° 64° (ENE) 19:56:49 435.675
BRITE-PL 24 Jul 19:58:13 20:00:29 14° 266° (W) 20:02:45 437.365/2234.400
CUBESAT XI-V 24 Jul 20:07:22 20:10:05 16° 293° (WNW) 20:12:50 437.345
SEEDS 24 Jul 20:11:26 20:14:19 18° 69° (ENE) 20:17:11 437.485
PHONESAT 2.4 24 Jul 20:13:44 20:16:39 37° 347° (NNW) 20:19:33 2401.200-2431.200
CINEMA 3 24 Jul 20:16:06 20:20:10 37° 72° (ENE) 20:24:25 145.822/145.860
Cubesat XI-IV 24 Jul 20:20:36 20:24:30 20° 266° (W) 20:28:25 437.490
STRAND 1 24 Jul 20:23:42 20:28:30 40° 99° (E) 20:33:14 437.568
COMPASS 1 24 Jul 20:28:36 20:31:36 19° 69° (ENE) 20:34:36 437.405
SO-50 24 Jul 20:29:05 20:30:27 11° 254° (WSW) 20:31:48 436.795
